Location: Le Castellard
(44.1862°N, 6.1301°E)
Time: 22:23:23
(UTC+00:00)

FALCON 9 DEB - Pass Details

Date: 18 January 2020
Orbit: 168 x 177 km, 53.0° (Epoch: 20 January)

Event Time Altitude Azimuth Distance (km) Brightness Sun altitude
Rises 06:28:25 0° 225° (SW) 1,616 5.8 -7.0°
Reaches altitude 10° 06:30:12 10° 219° (SW) 854 4.5 -6.7°
Maximum altitude 06:32:02 47° 142° (SE) 276 2.7 -6.4°
Drops below altitude 10° 06:33:52 10° 66° (ENE) 864 5.3 -6.1°
Sets 06:35:40 0° 60° (ENE) 1,639 6.6 -5.8°
